This is the latest recevied weather packets stored in our database for station/object DK6MAX-13. If no packets are shown the sender has not sent any weather packets the latest 10 day(s).
| Time | Temp. | Humidity | Pressure | Rain* | Wind** | Luminosity | Snow |
|---|---|---|---|---|---|---|---|
| 1777174788 | 3.89° C | 86% | 1023.5 hPa | - | - | - | - |
| 1777174788 | 3.89° C | 86% | 1023.4 hPa | - | - | - | - |
| 1777174788 | 3.89° C | 87% | 1023.5 hPa | - | - | - | - |
| 1777174727 | 3.33° C | 89% | 1023.5 hPa | - | - | - | - |
| 1777174727 | 3.33° C | 87% | 1023.5 hPa | - | - | - | - |
| 1777174668 | 2.78° C | 89% | 1023.5 hPa | - | - | - | - |
| 1777174608 | 2.22° C | 89% | 1023.5 hPa | - | - | - | - |
| 1777174607 | 2.22° C | 86% | 1023.5 hPa | - | - | - | - |
| 1777174548 | 2.22° C | 86% | 1023.5 hPa | - | - | - | - |
| 1777174548 | 2.22° C | 84% | 1023.5 hPa | - | - | - | - |
| 1777174488 | 2.78° C | 84% | 1023.4 hPa | - | - | - | - |
| 1777174488 | 2.78° C | 84% | 1023.5 hPa | - | - | - | - |
| 1777174487 | 2.78° C | 87% | 1023.4 hPa | - | - | - | - |
| 1777174428 | 3.33° C | 87% | 1023.4 hPa | - | - | - | - |
| 1777174427 | 3.33° C | 87% | 1023.5 hPa | - | - | - | - |
| 1777174368 | 3.33° C | 87% | 1023.5 hPa | - | - | - | - |
| 1777174367 | 3.33° C | 87% | 1023.4 hPa | - | - | - | - |
| 1777174307 | 3.33° C | 87% | 1023.4 hPa | - | - | - | - |
| 1777174248 | 3.33° C | 87% | 1023.5 hPa | - | - | - | - |
| 1777174248 | 3.33° C | 87% | 1023.4 hPa | - | - | - | - |
| 1777174247 | 3.33° C | 84% | 1023.5 hPa | - | - | - | - |
| 1777174188 | 3.33° C | 84% | 1023.5 hPa | - | - | - | - |
| 1777174187 | 3.33° C | 84% | 1023.4 hPa | - | - | - | - |
| 1777174128 | 3.89° C | 84% | 1023.4 hPa | - | - | - | - |
| 1777174127 | 3.89° C | 86% | 1023.4 hPa | - | - | - | - |
* Rain since midnight (hover to see other rain measurements)
** Current wind speed in m/s (hover to see current wind gust speed)